Regional Weather Roundup
Issued by NWS

Home | Current Version | Previous Version | Text Only | Print | Product List | Glossary Off
Versions: 1 2 3 4 5 6 7 8 9 10 11 12 13 14 15 16 17 18 19 20 21 22 23 24 25 26 27 28 29 30 31 32 33 34 35 36 37 38 39 40 41 42 43 44 45 46 47 48 49 50

000
ASUS43 KBIS 220302
RWRND

NORTH DAKOTA REGIONAL WEATHER ROUNDUP
NATIONAL WEATHER SERVICE BISMARCK ND
1000 PM CDT SAT OCT 21 2017

NOTE: "FAIR" INDICATES FEW OR NO CLOUDS BELOW 12,000 FEET WITH NO
SIGNIFICANT WEATHER AND/OR OBSTRUCTIONS TO VISIBILITY.


NDZ001>003-009>011-017-220400-
NORTHWEST NORTH DAKOTA

CITY           SKY/WX    TMP DP  RH WIND       PRES   REMARKS
WILLISTON      CLEAR     37  27  67 W9        29.79R
MINOT          CLOUDY    49  35  58 W13       29.70F
MINOT AFB      CLOUDY    47  36  66 W13       29.69S
$$

NDZ018>021-031>035-040>046-220400-
SOUTHWEST NORTH DAKOTA

CITY           SKY/WX    TMP DP  RH WIND       PRES   REMARKS
BISMARCK       PTCLDY    47  34  60 W8        29.82R
DICKINSON      CLEAR     36  25  64 W10       29.82R
GARRISON         N/A     43  33  68 W10       29.76R
HETTINGER ARPT CLEAR     33  21  61 NW5       29.89S
$$

NDZ004>008-012>016-024-026-027-054-220400-
NORTHEAST NORTH DAKOTA

CITY           SKY/WX    TMP DP  RH WIND       PRES   REMARKS
GRAND FORKS    CLOUDY    52  42  69 W12       29.64R
GRND FRKS AFB  CLOUDY    52  38  60 W13G21    29.64R
DEVILS LAKE    CLOUDY    47  36  65 W21G28    29.66R
$$

NDZ022-023-025-028>030-036>039-047>053-220400-
SOUTHEAST NORTH DAKOTA

CITY           SKY/WX    TMP DP  RH WIND       PRES   REMARKS
FARGO          CLOUDY    53  42  66 W14       29.70S
JAMESTOWN      CLOUDY    49  37  63 W21G29    29.72S
$$




USA.gov is the U.S. government's official web portal to all federal, state and local government web resources and services.